Home > Weather > Enugu > Past weeks

Flag for Nigeria Past Weather in Enugu, Nigeria — Yesterday and Last 2 Weeks

Now
73 °F

Passing clouds.


Feels Like: 70 °F
Forecast: 71 / 83 °F
Wind: 2 mph from Southwest

Location: Malabo/Fernando Poo

Current Time: Jul 28, 2016 at 12:14:19 AM

Latest Report: Jul 27, 2016 at 11:00 PM


Visibility: N/A

Pressure: 29.98 "Hg

Humidity: 94%

Dew Point: 72 °F

Location of EnuguLocation

Past Weather in Enugu — Graph

°F

Enugu Temperature Yesterday

Maximum temperature yesterday: 82 °F (at 10:00 AM)
Minimum temperature yesterday: 73 °F (at 1:00 AM)
Average temperature yesterday: 76 °F

High & Low Weather Summary for the Past Weeks

 TemperatureHumidityPressure
High86 °F (Jul 14, 1:00 PM)94% (Jul 13, 8:00 AM)30.01 "Hg (Jul 13, 8:00 AM)
Low70 °F (Jul 21, 4:00 AM)66% (Jul 19, 2:00 PM)29.86 "Hg (Jul 14, 4:00 PM)
Average77 °F86%29.94 "Hg
* Reported Jul 12 10:00 PM — Jul 27 10:00 PM, Enugu, Weather by CustomWeather, © 2016

Note: Actual official high and low records may vary slightly from our data, if they occured in-between our weather recording intervals... More about our weather records

Advertising

Enugu Weather History for the Previous 24 Hours

Scroll right to see more
 ConditionsComfort  
Time TempWeatherWind HumidityBarometerVisibility
10:00 PM
Wed, Jul 27
73 °FPassing clouds.No wind94%29.95 "HgN/A
9:00 PM75 °FPartly cloudy.1 mph89%29.95 "HgN/A
8:00 PM75 °FPartly cloudy.3 mph89%29.92 "Hg5 mi
7:00 PM75 °FPartly cloudy.3 mph89%29.92 "Hg5 mi
6:00 PM75 °FDrizzle. Partly sunny.3 mph89%29.92 "Hg4 mi
5:00 PM77 °FDrizzle. Partly sunny.1 mph83%29.92 "Hg5 mi
4:00 PM77 °FPartly sunny.3 mph83%29.92 "HgN/A
3:00 PM75 °FPartly sunny.2 mph83%29.92 "HgN/A
2:00 PM77 °FLight rain. Partly sunny.8 mph89%29.92 "Hg5 mi
1:00 PM81 °FPassing clouds.8 mph79%29.95 "HgN/A
12:00 PM82 °FPassing clouds.5 mph74%29.95 "HgN/A
11:00 AM82 °FPassing clouds.3 mph74%29.98 "HgN/A
10:00 AM82 °FPassing clouds.No wind74%29.98 "HgN/A
9:00 AM79 °FPassing clouds.2 mph84%29.98 "HgN/A
8:00 AM75 °FPartly sunny.3 mph89%29.95 "HgN/A
7:00 AM73 °FPartly sunny.2 mph89%29.92 "HgN/A
6:00 AM73 °FPartly cloudy.2 mph89%29.92 "HgN/A
5:00 AM73 °FPartly cloudy.No wind89%29.89 "HgN/A
4:00 AM73 °FPartly cloudy.No wind94%29.89 "HgN/A
3:00 AM73 °FPartly cloudy.2 mph94%29.92 "HgN/A
2:00 AM73 °FPassing clouds.1 mph94%29.92 "HgN/A
1:00 AM73 °FPassing clouds.No wind94%29.95 "HgN/A
12:00 AM75 °FPassing clouds.5 mph89%29.95 "HgN/A
Weather by CustomWeather, © 2016

See weather overviewHow to use our weather pages